TimeEDT,TemperatureF,Dew PointF,Humidity,Sea Level PressureIn,VisibilityMPH,Wind Direction,Wind SpeedMPH,Gust SpeedMPH,PrecipitationIn,Events,Conditions,WindDirDegrees,DateUTC
12:14 AM,41.9,34.7,76,29.66,10.0,NW,15.0,-,N/A,,Overcast,320,2012-11-01 04:14:00
12:35 AM,41.9,34.9,76,29.66,10.0,WNW,13.8,19.6,N/A,,Overcast,300,2012-11-01 04:35:00
12:54 AM,41.9,34.9,76,29.66,10.0,WNW,8.1,20.7,N/A,,Overcast,300,2012-11-01 04:54:00
1:15 AM,41.7,34.7,76,29.66,10.0,WNW,11.5,16.1,N/A,,Overcast,300,2012-11-01 05:15:00
1:35 AM,41.5,35.1,78,29.66,10.0,WNW,10.4,16.1,N/A,,Overcast,300,2012-11-01 05:35:00
2:15 AM,41.9,34.9,76,29.66,10.0,NW,11.5,20.7,N/A,,Overcast,310,2012-11-01 06:15:00
2:35 AM,41.7,35.1,77,29.66,10.0,NW,15.0,19.6,N/A,,Overcast,310,2012-11-01 06:35:00
2:54 AM,41.9,35.1,77,29.66,10.0,NW,13.8,19.6,N/A,,Overcast,310,2012-11-01 06:54:00
3:15 AM,41.5,35.8,80,29.66,10.0,WNW,10.4,17.3,N/A,,Overcast,300,2012-11-01 07:15:00
3:35 AM,41.4,36.1,82,29.66,10.0,WNW,10.4,18.4,N/A,,Overcast,290,2012-11-01 07:35:00
3:54 AM,41.4,36.1,82,29.66,10.0,WNW,10.4,16.1,N/A,,Overcast,300,2012-11-01 07:54:00
4:15 AM,41.5,35.6,79,29.66,10.0,WNW,9.2,-,N/A,,Overcast,300,2012-11-01 08:15:00
4:34 AM,41.4,36.5,83,29.67,10.0,WNW,11.5,-,N/A,,Overcast,290,2012-11-01 08:34:00
4:55 AM,41.0,37.0,86,29.67,5.0,WNW,9.2,17.3,N/A,,Overcast,290,2012-11-01 08:55:00
5:14 AM,40.6,37.4,88,29.67,4.0,WNW,9.2,-,N/A,,Overcast,290,2012-11-01 09:14:00
5:35 AM,40.6,37.0,87,29.67,5.0,WNW,9.2,-,N/A,,Overcast,290,2012-11-01 09:35:00
6:14 AM,40.8,36.5,85,29.68,10.0,West,8.1,17.3,N/A,,Overcast,280,2012-11-01 10:14:00
6:35 AM,40.8,35.8,82,29.68,10.0,West,10.4,16.1,N/A,,Overcast,280,2012-11-01 10:35:00
6:54 AM,41.0,35.4,81,29.68,10.0,WNW,8.1,17.3,N/A,,Overcast,300,2012-11-01 10:54:00
7:15 AM,41.0,35.1,79,29.69,10.0,WNW,8.1,-,N/A,,Overcast,300,2012-11-01 11:15:00
7:35 AM,41.0,34.7,78,29.69,10.0,WNW,13.8,19.6,N/A,,Overcast,300,2012-11-01 11:35:00
7:54 AM,41.0,34.5,78,29.70,10.0,WNW,16.1,21.9,N/A,,Overcast,300,2012-11-01 11:54:00
8:15 AM,41.0,34.2,77,29.70,10.0,WNW,11.5,-,N/A,,Overcast,300,2012-11-01 12:15:00
8:35 AM,41.0,34.0,76,29.70,10.0,WNW,12.7,-,N/A,,Overcast,290,2012-11-01 12:35:00
8:54 AM,41.0,34.2,77,29.71,10.0,WNW,12.7,17.3,N/A,,Overcast,290,2012-11-01 12:54:00
9:35 AM,41.4,33.8,74,29.71,10.0,WNW,16.1,20.7,N/A,,Overcast,290,2012-11-01 13:35:00
10:15 AM,41.5,32.9,71,29.73,10.0,WNW,16.1,25.3,N/A,,Overcast,300,2012-11-01 14:15:00
10:34 AM,41.7,32.7,70,29.73,10.0,WNW,16.1,21.9,N/A,,Overcast,300,2012-11-01 14:34:00
10:55 AM,41.9,32.4,69,29.73,10.0,West,11.5,17.3,N/A,,Overcast,280,2012-11-01 14:55:00
11:14 AM,41.5,32.4,70,29.73,10.0,NW,19.6,23.0,N/A,,Overcast,310,2012-11-01 15:14:00
11:34 AM,41.4,32.2,70,29.73,10.0,WNW,12.7,26.5,N/A,,Overcast,290,2012-11-01 15:34:00
11:55 AM,42.4,32.0,67,29.74,10.0,WNW,16.1,24.2,N/A,,Overcast,290,2012-11-01 15:55:00
12:14 PM,42.4,32.2,67,29.74,10.0,WNW,12.7,17.3,N/A,,Overcast,300,2012-11-01 16:14:00
12:35 PM,42.8,30.7,62,29.74,10.0,NW,16.1,21.9,N/A,,Overcast,310,2012-11-01 16:35:00
12:54 PM,42.4,30.2,62,29.73,10.0,WNW,15.0,23.0,N/A,,Overcast,290,2012-11-01 16:54:00
1:15 PM,42.8,29.3,59,29.73,10.0,WNW,18.4,24.2,N/A,,Overcast,290,2012-11-01 17:15:00
1:35 PM,43.2,29.3,58,29.73,10.0,West,15.0,21.9,N/A,,Overcast,280,2012-11-01 17:35:00
1:54 PM,43.5,29.1,57,29.72,10.0,West,12.7,18.4,N/A,,Overcast,280,2012-11-01 17:54:00
2:15 PM,44.2,29.8,57,29.71,10.0,WNW,10.4,18.4,N/A,,Overcast,290,2012-11-01 18:15:00
2:34 PM,44.6,30.0,57,29.71,10.0,WNW,13.8,18.4,N/A,,Overcast,290,2012-11-01 18:34:00
2:55 PM,44.8,29.8,56,29.70,10.0,NW,9.2,16.1,N/A,,Overcast,310,2012-11-01 18:55:00
3:15 PM,44.8,29.8,56,29.71,10.0,WNW,15.0,20.7,N/A,,Mostly Cloudy,300,2012-11-01 19:15:00
3:34 PM,46.8,29.5,51,29.71,10.0,West,12.7,18.4,N/A,,Mostly Cloudy,280,2012-11-01 19:34:00
3:55 PM,47.5,28.8,48,29.71,10.0,WNW,13.8,-,N/A,,Mostly Cloudy,290,2012-11-01 19:55:00
4:34 PM,46.9,27.5,47,29.71,10.0,WNW,12.7,16.1,N/A,,Clear,290,2012-11-01 20:34:00
5:15 PM,46.9,27.1,46,29.71,10.0,West,9.2,18.4,N/A,,Mostly Cloudy,270,2012-11-01 21:15:00
5:34 PM,46.4,27.5,48,29.72,10.0,NW,13.8,17.3,N/A,,Overcast,310,2012-11-01 21:34:00
5:55 PM,46.4,27.5,48,29.73,10.0,WNW,9.2,19.6,N/A,,Overcast,300,2012-11-01 21:55:00
6:15 PM,46.0,27.9,49,29.73,10.0,WNW,12.7,17.3,N/A,,Overcast,290,2012-11-01 22:15:00
6:34 PM,45.5,28.4,51,29.73,10.0,NW,11.5,-,N/A,,Overcast,310,2012-11-01 22:34:00
7:14 PM,45.0,27.5,50,29.75,10.0,WNW,9.2,-,N/A,,Overcast,300,2012-11-01 23:14:00
7:35 PM,45.0,27.5,50,29.75,10.0,WNW,8.1,-,N/A,,Overcast,290,2012-11-01 23:35:00
7:54 PM,45.5,26.8,48,29.75,10.0,WNW,8.1,-,N/A,,Mostly Cloudy,290,2012-11-01 23:54:00
8:14 PM,45.5,26.8,48,29.75,10.0,NW,5.8,-,N/A,,Overcast,310,2012-11-02 00:14:00
8:35 PM,45.7,26.6,47,29.76,10.0,WNW,8.1,-,N/A,,Overcast,290,2012-11-02 00:35:00
8:54 PM,45.7,26.6,47,29.76,10.0,WNW,6.9,-,N/A,,Overcast,290,2012-11-02 00:54:00
9:15 PM,45.5,26.8,48,29.76,10.0,WNW,11.5,-,N/A,,Overcast,300,2012-11-02 01:15:00
9:34 PM,45.1,26.8,49,29.77,10.0,WNW,10.4,17.3,N/A,,Overcast,300,2012-11-02 01:34:00
9:54 PM,44.8,27.1,50,29.77,10.0,NW,5.8,-,N/A,,Overcast,320,2012-11-02 01:54:00
10:15 PM,43.9,27.3,52,29.78,10.0,NNW,10.4,17.3,N/A,,Overcast,330,2012-11-02 02:15:00
10:34 PM,43.7,26.6,51,29.78,10.0,NW,9.2,-,N/A,,Overcast,320,2012-11-02 02:34:00
10:54 PM,43.3,26.4,51,29.78,10.0,NNW,10.4,-,N/A,,Overcast,330,2012-11-02 02:54:00
11:14 PM,43.2,26.2,51,29.78,10.0,NW,9.2,-,N/A,,Overcast,310,2012-11-02 03:14:00
11:34 PM,43.0,26.6,52,29.79,10.0,NW,8.1,-,N/A,,Overcast,310,2012-11-02 03:34:00
11:54 PM,42.4,28.2,57,29.79,10.0,WNW,6.9,-,N/A,,Overcast,290,2012-11-02 03:54:00